| time (UTC) | temp F | wind direction | speed knots | gust knots | rain 1hr in | rain 24hr in | rain mn in | humidity % | barometer mb |
| 20260509090109 | 51 | 124 | 0.0 | 1.7 | 0.00 | 0.00 | 0.00 | 86 | 1022.6 |
| 20260509085608 | 51 | 140 | 0.0 | 1.7 | 0.00 | 0.00 | 0.00 | 86 | 1022.6 |
| 20260509085109 | 51 | 139 | 0.0 | 1.7 | 0.00 | 0.00 | 0.00 | 86 | 1022.7 |
| 20260509084608 | 51 | 181 | 0.0 | 0.9 | 0.00 | 0.00 | 0.00 | 86 | 1022.7 |
| 20260509084114 | 51 | 220 | 0.0 | 0.9 | 0.00 | 0.00 | 0.00 | 85 | 1022.7 |
| 20260509084108 | 51 | 181 | 0.9 | 2.6 | 0.00 | 0.00 | 0.00 | 86 | 1022.6 |
| 20260509083713 | 51 | 144 | 0.0 | 2.6 | 0.00 | 0.00 | 0.00 | 86 | 1022.7 |
| 20260509082606 | 51 | 221 | 0.0 | 2.6 | 0.00 | 0.00 | 0.00 | 85 | 1022.7 |
| 20260509082106 | 52 | 221 | 0.9 | 2.6 | 0.00 | 0.00 | 0.00 | 85 | 1022.7 |
| 20260509081613 | 52 | 240 | 0.9 | 3.5 | 0.00 | 0.00 | 0.00 | 85 | 1022.6 |
| 20260509081608 | 52 | 235 | 0.9 | 3.5 | 0.00 | 0.00 | 0.00 | 85 | 1022.6 |
| 20260509080608 | 52 | 182 | 0.9 | 4.3 | 0.00 | 0.00 | 0.00 | 85 | 1022.7 |
| 20260509080112 | 52 | 250 | 0.9 | 5.2 | 0.00 | 0.00 | 0.00 | 85 | 1022.7 |
| 20260509080108 | 52 | 222 | 0.9 | 5.2 | 0.00 | 0.00 | 0.00 | 85 | 1022.7 |
| 20260509075106 | 52 | 126 | 0.9 | 5.2 | 0.00 | 0.00 | 0.00 | 86 | 1022.7 |
| 20260509074610 | 52 | 355 | 0.9 | 5.2 | 0.00 | 0.00 | 0.00 | 86 | 1022.6 |
| 20260509074104 | 51 | 338 | 0.9 | 3.5 | 0.00 | 0.00 | 0.00 | 86 | 1022.6 |
| 20260509073605 | 51 | 167 | 0.9 | 4.3 | 0.00 | 0.00 | 0.00 | 87 | 1022.6 |
| 20260509073104 | 51 | 217 | 0.9 | 4.3 | 0.00 | 0.00 | 0.00 | 87 | 1022.6 |
| 20260509072606 | 51 | 108 | 0.0 | 1.7 | 0.00 | 0.00 | 0.00 | 87 | 1022.6 |
| 20260509072104 | 51 | 309 | 0.9 | 4.3 | 0.00 | 0.00 | 0.00 | 87 | 1022.6 |
| 20260509071609 | 51 | 65 | 0.0 | 1.7 | 0.00 | 0.00 | 0.00 | 87 | 1022.5 |
| 20260509071604 | 51 | 110 | 0.9 | 4.3 | 0.00 | 0.00 | 0.00 | 87 | 1022.5 |
| 20260509070606 | 51 | 354 | 0.0 | 1.7 | 0.00 | 0.00 | 0.00 | 87 | 1022.4 |
| 20260509070602 | 51 | 354 | 0.0 | 1.7 | 0.00 | 0.00 | 0.00 | 88 | 1022.4 |
| 20260509065601 | 50 | 56 | 0.0 | 0.9 | 0.00 | 0.00 | 0.00 | 87 | 1022.4 |
| 20260509065101 | 50 | 278 | 0.0 | 0.9 | 0.00 | 0.00 | 0.00 | 87 | 1022.4 |
| 20260509064601 | 50 | 278 | 0.0 | 0.9 | 0.00 | 0.00 | 0.00 | 87 | 1022.3 |
| 20260509064100 | 51 | 278 | 0.0 | 0.9 | 0.00 | 0.00 | 0.00 | 86 | 1022.3 |
| 20260509063602 | 51 | 278 | 0.0 | 0.9 | 0.00 | 0.00 | 0.00 | 86 | 1022.3 |
| 20260509063100 | 51 | 278 | 0.0 | 0.9 | 0.00 | 0.00 | 0.00 | 86 | 1022.3 |
| 20260509062559 | 51 | 278 | 0.0 | 0.9 | 0.00 | 0.00 | 0.00 | 85 | 1022.3 |
| 20260509062100 | 51 | 278 | 0.0 | 3.5 | 0.00 | 0.00 | 0.00 | 85 | 1022.2 |
| 20260509061556 | 51 | 278 | 0.9 | 3.5 | 0.00 | 0.00 | 0.00 | 85 | 1022.2 |
| 20260509061057 | 51 | 316 | 0.0 | 1.7 | 0.00 | 0.00 | 0.00 | 85 | 1022.2 |
| 20260509060556 | 51 | 29 | 0.0 | 1.7 | 0.00 | 0.00 | 0.00 | 84 | 1022.1 |
| 20260509060057 | 51 | 330 | 0.0 | 1.7 | 0.00 | 0.00 | 0.00 | 84 | 1022.1 |
| 20260509055558 | 51 | 115 | 0.0 | 1.7 | 0.00 | 0.00 | 0.00 | 84 | 1022.0 |
| 20260509055054 | 51 | 283 | 0.9 | 1.7 | 0.00 | 0.00 | 0.00 | 84 | 1022.0 |
| 20260509054553 | 51 | 288 | 0.9 | 2.6 | 0.00 | 0.00 | 0.00 | 83 | 1022.0 |
| 20260509054053 | 52 | 290 | 0.9 | 2.6 | 0.00 | 0.00 | 0.00 | 83 | 1022.0 |
| 20260509053553 | 52 | 220 | 0.9 | 5.2 | 0.00 | 0.00 | 0.00 | 83 | 1022.0 |
| 20260509053052 | 52 | 181 | 0.9 | 5.2 | 0.00 | 0.00 | 0.00 | 84 | 1022.0 |
| 20260509052550 | 51 | 154 | 0.9 | 2.6 | 0.00 | 0.00 | 0.00 | 83 | 1022.0 |
| 20260509052049 | 51 | 211 | 0.0 | 2.6 | 0.00 | 0.00 | 0.00 | 83 | 1022.0 |
| 20260509051549 | 52 | 169 | 0.0 | 2.6 | 0.00 | 0.00 | 0.00 | 82 | 1022.1 |
| 20260509051047 | 52 | 150 | 0.0 | 2.6 | 0.00 | 0.00 | 0.00 | 82 | 1022.1 |
| 20260509050549 | 52 | 213 | 0.0 | 2.6 | 0.00 | 0.00 | 0.00 | 82 | 1022.1 |
| 20260509050048 | 52 | 187 | 0.0 | 1.7 | 0.00 | 0.00 | 0.00 | 81 | 1022.0 |
| 20260509045553 | 52 | 243 | 0.0 | 1.7 | 0.00 | 0.00 | 0.00 | 80 | 1021.9 |
| 20260509045548 | 52 | 187 | 0.0 | 1.7 | 0.00 | 0.00 | 0.00 | 81 | 1021.9 |
| 20260509045047 | 52 | 243 | 0.0 | 1.7 | 0.00 | 0.00 | 0.00 | 80 | 1021.9 |
| 20260509044047 | 53 | 239 | 0.0 | 1.7 | 0.00 | 0.00 | 0.00 | 79 | 1022.0 |
| 20260509043546 | 53 | 262 | 0.9 | 4.3 | 0.00 | 0.00 | 0.00 | 79 | 1022.0 |
| 20260509043047 | 53 | 313 | 0.9 | 4.3 | 0.00 | 0.00 | 0.00 | 79 | 1022.0 |
| 20260509042546 | 53 | 159 | 0.0 | 1.7 | 0.00 | 0.00 | 0.00 | 78 | 1021.9 |
| 20260509042049 | 53 | 159 | 0.0 | 1.7 | 0.00 | 0.00 | 0.00 | 78 | 1022.0 |
| 20260509041547 | 53 | 13 | 0.0 | 1.7 | 0.00 | 0.00 | 0.00 | 77 | 1021.9 |
| 20260509041046 | 53 | 228 | 0.9 | 3.5 | 0.00 | 0.00 | 0.00 | 77 | 1021.9 |
| 20260509040545 | 53 | 136 | 0.9 | 3.5 | 0.00 | 0.00 | 0.00 | 77 | 1021.8 |
| 20260509040044 | 54 | 144 | 0.9 | 2.6 | 0.00 | 0.00 | 0.00 | 76 | 1021.8 |
| 20260509035545 | 54 | 65 | 0.9 | 3.5 | 0.00 | 0.00 | 0.00 | 76 | 1021.7 |
| 20260509035046 | 54 | 7 | 0.9 | 3.5 | 0.00 | 0.00 | 0.00 | 75 | 1021.7 |
| 20260509034547 | 54 | 24 | 0.9 | 2.6 | 0.00 | 0.00 | 0.00 | 75 | 1021.7 |
| 20260509034049 | 55 | 311 | 0.9 | 4.3 | 0.00 | 0.00 | 0.00 | 73 | 1021.6 |
| 20260509034044 | 55 | 259 | 0.9 | 4.3 | 0.00 | 0.00 | 0.00 | 74 | 1021.6 |
| 20260509033045 | 55 | 265 | 0.9 | 3.5 | 0.00 | 0.00 | 0.00 | 73 | 1021.5 |
| 20260509032549 | 55 | 359 | 0.9 | 2.6 | 0.00 | 0.00 | 0.00 | 73 | 1021.4 |
| 20260509032543 | 55 | 9 | 0.9 | 2.6 | 0.00 | 0.00 | 0.00 | 73 | 1021.5 |
| 20260509031542 | 55 | 293 | 0.0 | 2.6 | 0.00 | 0.00 | 0.00 | 72 | 1021.4 |
| 20260509031047 | 55 | 226 | 0.9 | 1.7 | 0.00 | 0.00 | 0.00 | 71 | 1021.3 |
| 20260509031043 | 55 | 226 | 0.0 | 1.7 | 0.00 | 0.00 | 0.00 | 71 | 1021.4 |
| 20260509030048 | 56 | 207 | 0.0 | 1.7 | 0.00 | 0.00 | 0.00 | 69 | 1021.3 |
| 20260509030042 | 56 | 221 | 0.0 | 1.7 | 0.00 | 0.00 | 0.00 | 70 | 1021.3 |
| 20260509025543 | 56 | 224 | 0.0 | 1.7 | 0.00 | 0.00 | 0.00 | 70 | 1021.4 |
| 20260509024542 | 56 | 224 | 0.0 | 1.7 | 0.00 | 0.00 | 0.00 | 69 | 1021.2 |
| 20260509024047 | 56 | 225 | 0.9 | 2.6 | 0.00 | 0.00 | 0.00 | 68 | 1021.2 |
| 20260509024043 | 56 | 183 | 0.9 | 2.6 | 0.00 | 0.00 | 0.00 | 68 | 1021.2 |
| 20260509023041 | 57 | 230 | 0.9 | 2.6 | 0.00 | 0.00 | 0.00 | 68 | 1021.1 |
| 20260509022541 | 57 | 217 | 0.9 | 2.6 | 0.00 | 0.00 | 0.00 | 68 | 1021.1 |
| 20260509022040 | 57 | 357 | 0.9 | 2.6 | 0.00 | 0.00 | 0.00 | 67 | 1021.1 |
| 20260509021542 | 57 | 352 | 0.9 | 2.6 | 0.00 | 0.00 | 0.00 | 67 | 1021.1 |
| 20260509021040 | 58 | 56 | 0.9 | 3.5 | 0.00 | 0.00 | 0.00 | 66 | 1021.1 |
| 20260509020542 | 58 | 221 | 1.7 | 4.3 | 0.00 | 0.00 | 0.00 | 65 | 1021.0 |
| 20260509020047 | 59 | 311 | 1.7 | 7.8 | 0.00 | 0.00 | 0.00 | 63 | 1021.0 |
| 20260509020041 | 59 | 34 | 0.9 | 5.2 | 0.00 | 0.00 | 0.00 | 64 | 1021.0 |
| 20260509015043 | 59 | 335 | 1.7 | 7.8 | 0.00 | 0.00 | 0.00 | 63 | 1021.0 |
| 20260509014538 | 59 | 259 | 1.7 | 6.1 | 0.00 | 0.00 | 0.00 | 62 | 1021.0 |
| 20260509014039 | 60 | 171 | 1.7 | 5.2 | 0.00 | 0.00 | 0.00 | 61 | 1021.1 |
| 20260509013538 | 60 | 205 | 1.7 | 6.1 | 0.00 | 0.00 | 0.00 | 60 | 1021.1 |
| 20260509013038 | 60 | 53 | 1.7 | 6.1 | 0.00 | 0.00 | 0.00 | 60 | 1021.1 |
| 20260509012545 | 62 | 15 | 1.7 | 5.2 | 0.00 | 0.00 | 0.00 | 57 | 1021.1 |
| 20260509012540 | 61 | 278 | 0.9 | 5.2 | 0.00 | 0.00 | 0.00 | 58 | 1021.1 |
| 20260509011540 | 62 | 105 | 0.9 | 5.2 | 0.00 | 0.00 | 0.00 | 57 | 1021.0 |
| 20260509011039 | 63 | 295 | 0.9 | 4.3 | 0.00 | 0.00 | 0.00 | 55 | 1021.0 |
| 20260509010539 | 62 | 329 | 1.7 | 4.3 | 0.00 | 0.00 | 0.00 | 56 | 1021.0 |
| 20260509010038 | 62 | 288 | 1.7 | 6.1 | 0.00 | 0.00 | 0.00 | 56 | 1020.9 |
| 20260509005540 | 62 | 236 | 1.7 | 6.1 | 0.00 | 0.00 | 0.00 | 55 | 1021.0 |
| 20260509005043 | 62 | 238 | 1.7 | 7.0 | 0.00 | 0.00 | 0.00 | 57 | 1021.0 |
| 20260509005038 | 62 | 314 | 1.7 | 5.2 | 0.00 | 0.00 | 0.00 | 55 | 1021.0 |
| 20260509004036 | 62 | 124 | 2.6 | 7.0 | 0.00 | 0.00 | 0.00 | 56 | 1021.0 |
| 20260509003538 | 62 | 354 | 1.7 | 4.3 | 0.00 | 0.00 | 0.00 | 56 | 1021.1 |
| 20260509003035 | 62 | 282 | 1.7 | 4.3 | 0.00 | 0.00 | 0.00 | 57 | 1021.0 |
| 20260509002533 | 62 | 201 | 1.7 | 4.3 | 0.00 | 0.00 | 0.00 | 56 | 1021.0 |
| 20260509002032 | 61 | 327 | 1.7 | 5.2 | 0.00 | 0.00 | 0.00 | 55 | 1021.0 |
| 20260509001533 | 62 | 240 | 2.6 | 7.8 | 0.00 | 0.00 | 0.00 | 54 | 1021.1 |
| 20260509001031 | 62 | 202 | 2.6 | 7.8 | 0.00 | 0.00 | 0.00 | 55 | 1021.0 |
| 20260509000532 | 62 | 149 | 1.7 | 7.8 | 0.00 | 0.00 | 0.00 | 56 | 1021.0 |
| 20260509000032 | 62 | 293 | 2.6 | 7.8 | 0.00 | 0.00 | 0.00 | 56 | 1021.0 |
| 20260508235531 | 62 | 200 | 2.6 | 9.6 | 0.00 | 0.00 | 0.00 | 54 | 1021.0 |
| 20260508235033 | 62 | 156 | 2.6 | 9.6 | 0.00 | 0.00 | 0.00 | 54 | 1021.0 |
| 20260508234534 | 62 | 322 | 2.6 | 8.7 | 0.00 | 0.00 | 0.00 | 54 | 1021.0 |
| 20260508234033 | 62 | 177 | 2.6 | 7.8 | 0.00 | 0.00 | 0.00 | 53 | 1020.9 |
| 20260508233532 | 62 | 193 | 1.7 | 6.1 | 0.00 | 0.00 | 0.00 | 53 | 1021.0 |
| 20260508233032 | 62 | 127 | 2.6 | 6.1 | 0.00 | 0.00 | 0.00 | 55 | 1021.0 |
| 20260508232532 | 61 | 4 | 3.5 | 7.8 | 0.00 | 0.00 | 0.00 | 56 | 1020.9 |
| 20260508232032 | 61 | 155 | 2.6 | 7.8 | 0.00 | 0.00 | 0.00 | 55 | 1020.9 |
| 20260508231530 | 62 | 323 | 2.6 | 7.8 | 0.00 | 0.00 | 0.00 | 54 | 1020.9 |
| 20260508231031 | 62 | 182 | 3.5 | 8.7 | 0.00 | 0.00 | 0.00 | 53 | 1021.0 |
| 20260508230531 | 62 | 131 | 2.6 | 8.7 | 0.00 | 0.00 | 0.00 | 53 | 1020.9 |
| 20260508230031 | 62 | 129 | 2.6 | 7.8 | 0.00 | 0.00 | 0.00 | 53 | 1020.9 |
| 20260508225529 | 62 | 10 | 1.7 | 6.1 | 0.00 | 0.00 | 0.00 | 54 | 1020.9 |
| 20260508225031 | 62 | 306 | 1.7 | 5.2 | 0.00 | 0.00 | 0.00 | 55 | 1020.9 |
| 20260508224532 | 61 | 153 | 2.6 | 8.7 | 0.00 | 0.00 | 0.00 | 56 | 1021.0 |
| 20260508224029 | 61 | 245 | 3.5 | 8.7 | 0.00 | 0.00 | 0.00 | 54 | 1021.0 |
| 20260508223530 | 61 | 189 | 2.6 | 7.8 | 0.00 | 0.00 | 0.00 | 54 | 1020.9 |
| 20260508223031 | 62 | 136 | 1.7 | 7.0 | 0.00 | 0.00 | 0.00 | 55 | 1020.9 |
| 20260508222530 | 62 | 51 | 1.7 | 4.3 | 0.00 | 0.00 | 0.00 | 56 | 1020.9 |
| 20260508222031 | 61 | 349 | 2.6 | 5.2 | 0.00 | 0.00 | 0.00 | 56 | 1021.0 |
| 20260508221531 | 61 | 262 | 2.6 | 7.0 | 0.00 | 0.00 | 0.00 | 55 | 1021.0 |
| 20260508221031 | 60 | 156 | 2.6 | 8.7 | 0.00 | 0.00 | 0.00 | 55 | 1021.0 |
| 20260508220531 | 61 | 230 | 1.7 | 8.7 | 0.00 | 0.00 | 0.00 | 53 | 1020.9 |
| 20260508220031 | 62 | 343 | 3.5 | 8.7 | 0.00 | 0.00 | 0.00 | 53 | 1020.8 |
| 20260508215536 | 61 | 155 | 3.5 | 10.4 | 0.00 | 0.00 | 0.00 | 52 | 1020.8 |
| 20260508215531 | 61 | 147 | 4.3 | 10.4 | 0.00 | 0.00 | 0.00 | 54 | 1020.9 |
| 20260508214535 | 60 | 179 | 3.5 | 9.6 | 0.00 | 0.00 | 0.00 | 53 | 1021.0 |
| 20260508214530 | 61 | 110 | 3.5 | 9.6 | 0.00 | 0.00 | 0.00 | 54 | 1020.9 |
| 20260508213531 | 60 | 318 | 2.6 | 8.7 | 0.00 | 0.00 | 0.00 | 56 | 1021.1 |
| 20260508213029 | 60 | 123 | 3.5 | 9.6 | 0.00 | 0.00 | 0.00 | 56 | 1020.9 |
| 20260508212528 | 60 | 160 | 4.3 | 10.4 | 0.00 | 0.00 | 0.00 | 55 | 1021.0 |
| 20260508212033 | 59 | 272 | 3.5 | 7.0 | 0.00 | 0.00 | 0.00 | 57 | 1020.9 |
| 20260508212028 | 59 | 150 | 3.5 | 10.4 | 0.00 | 0.00 | 0.00 | 56 | 1021.0 |
| 20260508211030 | 59 | 174 | 2.6 | 7.0 | 0.00 | 0.00 | 0.00 | 56 | 1021.0 |
| 20260508210534 | 59 | 214 | 3.5 | 9.6 | 0.00 | 0.00 | 0.00 | 57 | 1020.9 |
| 20260508210528 | 59 | 258 | 2.6 | 7.8 | 0.00 | 0.00 | 0.00 | 57 | 1020.8 |
| 20260508210155 | 59 | 130 | 2.6 | 12.2 | 0.00 | 0.00 | 0.00 | 57 | 1020.8 |
| 20260508205526 | 59 | 164 | 3.5 | 12.2 | 0.00 | 0.00 | 0.00 | 57 | 1020.9 |
| 20260508204526 | 59 | 165 | 1.7 | 6.1 | 0.00 | 0.00 | 0.00 | 57 | 1020.8 |
| 20260508204033 | 59 | 278 | 2.6 | 7.8 | 0.00 | 0.00 | 0.00 | 59 | 1020.7 |
| 20260508204026 | 59 | 86 | 1.7 | 5.2 | 0.00 | 0.00 | 0.00 | 59 | 1020.7 |
| 20260508203022 | 58 | 333 | 2.6 | 7.8 | 0.00 | 0.00 | 0.00 | 58 | 1020.7 |
| 20260508202522 | 58 | 161 | 2.6 | 8.7 | 0.00 | 0.00 | 0.00 | 59 | 1020.7 |
| 20260508202028 | 58 | 211 | 2.6 | 8.7 | 0.00 | 0.00 | 0.00 | 61 | 1020.7 |
| 20260508202023 | 58 | 248 | 3.5 | 8.7 | 0.00 | 0.00 | 0.00 | 58 | 1020.6 |
| 20260508201019 | 58 | 216 | 2.6 | 8.7 | 0.00 | 0.00 | 0.00 | 60 | 1020.7 |
| 20260508200522 | 58 | 193 | 2.6 | 7.0 | 0.00 | 0.00 | 0.00 | 60 | 1020.6 |
| 20260508200025 | 57 | 212 | 1.7 | 7.0 | 0.00 | 0.00 | 0.00 | 61 | 1020.7 |
| 20260508200019 | 57 | 206 | 2.6 | 7.0 | 0.00 | 0.00 | 0.00 | 60 | 1020.8 |
| 20260508195019 | 57 | 88 | 2.6 | 9.6 | 0.00 | 0.00 | 0.00 | 62 | 1020.7 |
| 20260508194517 | 56 | 195 | 3.5 | 9.6 | 0.00 | 0.00 | 0.00 | 61 | 1020.7 |
| 20260508194022 | 56 | 158 | 2.6 | 9.6 | 0.00 | 0.00 | 0.00 | 62 | 1020.7 |
| 20260508194015 | 56 | 150 | 2.6 | 7.8 | 0.00 | 0.00 | 0.00 | 62 | 1020.7 |
| 20260508193516 | 56 | 290 | 2.6 | 9.6 | 0.00 | 0.00 | 0.00 | 62 | 1020.7 |
| 20260508192519 | 56 | 243 | 2.6 | 8.7 | 0.00 | 0.00 | 0.00 | 62 | 1020.6 |
| 20260508192515 | 56 | 81 | 2.6 | 7.0 | 0.00 | 0.00 | 0.00 | 63 | 1020.7 |
| 20260508191516 | 56 | 141 | 2.6 | 7.8 | 0.00 | 0.00 | 0.00 | 62 | 1020.7 |
| 20260508191511 | 56 | 342 | 2.6 | 8.7 | 0.00 | 0.00 | 0.00 | 63 | 1020.6 |
| 20260508190510 | 56 | 119 | 3.5 | 8.7 | 0.00 | 0.00 | 0.00 | 63 | 1020.5 |
| 20260508190015 | 55 | 76 | 2.6 | 8.7 | 0.00 | 0.00 | 0.00 | 65 | 1020.5 |
| 20260508190008 | 56 | 165 | 2.6 | 8.7 | 0.00 | 0.00 | 0.00 | 62 | 1020.6 |
| 20260508185508 | 55 | 290 | 2.6 | 8.7 | 0.00 | 0.00 | 0.00 | 65 | 1020.6 |
| 20260508184509 | 54 | 176 | 2.6 | 8.7 | 0.00 | 0.00 | 0.00 | 65 | 1020.6 |
| 20260508184006 | 54 | 28 | 3.5 | 11.3 | 0.00 | 0.00 | 0.00 | 66 | 1020.5 |
| 20260508183509 | 54 | 67 | 3.5 | 11.3 | 0.00 | 0.00 | 0.00 | 65 | 1020.7 |
| 20260508183012 | 54 | 233 | 2.6 | 7.0 | 0.00 | 0.00 | 0.00 | 65 | 1020.5 |
| 20260508183007 | 54 | 262 | 2.6 | 7.0 | 0.00 | 0.00 | 0.00 | 65 | 1020.5 |
| 20260508182005 | 54 | 155 | 2.6 | 8.7 | 0.00 | 0.00 | 0.00 | 66 | 1020.5 |
| 20260508181506 | 53 | 120 | 3.5 | 8.7 | 0.00 | 0.00 | 0.00 | 66 | 1020.6 |
| 20260508181011 | 53 | 228 | 2.6 | 12.2 | 0.00 | 0.00 | 0.00 | 67 | 1020.5 |
| 20260508181005 | 53 | 172 | 2.6 | 8.7 | 0.00 | 0.00 | 0.00 | 67 | 1020.4 |
| 20260508180007 | 53 | 131 | 2.6 | 12.2 | 0.00 | 0.00 | 0.00 | 68 | 1020.4 |
| 20260508175506 | 53 | 336 | 2.6 | 7.8 | 0.00 | 0.00 | 0.00 | 68 | 1020.4 |
| 20260508175003 | 53 | 290 | 2.6 | 8.7 | 0.00 | 0.00 | 0.00 | 68 | 1020.3 |
| 20260508174505 | 53 | 108 | 2.6 | 8.7 | 0.00 | 0.00 | 0.00 | 68 | 1020.2 |
| 20260508174004 | 53 | 222 | 2.6 | 7.0 | 0.00 | 0.00 | 0.00 | 68 | 1020.1 |
| 20260508173503 | 52 | 327 | 1.7 | 7.8 | 0.00 | 0.00 | 0.00 | 68 | 1020.1 |
| 20260508173004 | 52 | 58 | 2.6 | 8.7 | 0.00 | 0.00 | 0.00 | 67 | 1019.9 |
| 20260508172503 | 52 | 105 | 2.6 | 8.7 | 0.00 | 0.00 | 0.00 | 67 | 1019.8 |
| 20260508172005 | 53 | 300 | 1.7 | 7.8 | 0.00 | 0.00 | 0.00 | 67 | 1019.7 |
| 20260508171504 | 53 | 342 | 2.6 | 7.0 | 0.00 | 0.00 | 0.00 | 66 | 1019.7 |
| 20260508171004 | 53 | 31 | 2.6 | 6.1 | 0.00 | 0.00 | 0.00 | 66 | 1019.6 |
| 20260508170505 | 53 | 352 | 1.7 | 5.2 | 0.00 | 0.00 | 0.00 | 67 | 1019.6 |
| 20260508170001 | 54 | 168 | 1.7 | 6.1 | 0.00 | 0.00 | 0.00 | 67 | 1019.6 |
| 20260508165503 | 54 | 297 | 2.6 | 7.8 | 0.00 | 0.00 | 0.00 | 67 | 1019.6 |
| 20260508165001 | 54 | 262 | 2.6 | 7.8 | 0.00 | 0.00 | 0.00 | 66 | 1019.4 |
| 20260508164508 | 54 | 100 | 1.7 | 5.2 | 0.00 | 0.00 | 0.00 | 66 | 1019.3 |
| 20260508164502 | 54 | 304 | 1.7 | 5.2 | 0.00 | 0.00 | 0.00 | 66 | 1019.4 |
| 20260508163502 | 54 | 113 | 2.6 | 5.2 | 0.00 | 0.00 | 0.00 | 66 | 1019.2 |
| 20260508163003 | 53 | 129 | 2.6 | 7.8 | 0.00 | 0.00 | 0.00 | 66 | 1019.2 |
| 20260508162502 | 53 | 149 | 2.6 | 7.8 | 0.00 | 0.00 | 0.00 | 68 | 1019.2 |
| 20260508162008 | 53 | 212 | 2.6 | 8.7 | 0.00 | 0.00 | 0.00 | 68 | 1019.2 |
| 20260508162002 | 53 | 105 | 2.6 | 8.7 | 0.00 | 0.00 | 0.00 | 68 | 1019.1 |
| 20260508161002 | 53 | 76 | 1.7 | 6.1 | 0.00 | 0.00 | 0.00 | 68 | 1019.2 |
| 20260508160501 | 53 | 73 | 2.6 | 6.1 | 0.00 | 0.00 | 0.00 | 70 | 1019.0 |
| 20260508160001 | 52 | 290 | 2.6 | 6.1 | 0.00 | 0.00 | 0.00 | 70 | 1019.0 |
| 20260508155501 | 53 | 179 | 1.7 | 6.1 | 0.00 | 0.00 | 0.00 | 69 | 1018.9 |
| 20260508155002 | 53 | 56 | 0.9 | 6.1 | 0.00 | 0.00 | 0.00 | 70 | 1018.9 |
| 20260508154508 | 52 | 94 | 2.6 | 7.8 | 0.00 | 0.00 | 0.00 | 69 | 1018.8 |
| 20260508154502 | 52 | 134 | 1.7 | 6.1 | 0.00 | 0.00 | 0.00 | 69 | 1018.9 |
| 20260508153501 | 52 | 206 | 1.7 | 7.8 | 0.00 | 0.00 | 0.00 | 69 | 1018.9 |
| 20260508153001 | 52 | 297 | 2.6 | 8.7 | 0.00 | 0.00 | 0.00 | 69 | 1018.9 |
| 20260508152457 | 52 | 262 | 2.6 | 9.6 | 0.00 | 0.00 | 0.00 | 69 | 1018.8 |
| 20260508151958 | 52 | 240 | 2.6 | 9.6 | 0.00 | 0.00 | 0.00 | 69 | 1018.8 |
| 20260508151457 | 52 | 140 | 1.7 | 7.0 | 0.00 | 0.00 | 0.00 | 70 | 1018.8 |
| 20260508150958 | 52 | 179 | 1.7 | 6.1 | 0.00 | 0.00 | 0.00 | 70 | 1018.8 |
| 20260508150458 | 52 | 141 | 2.6 | 5.2 | 0.00 | 0.00 | 0.00 | 71 | 1018.9 |
| 20260508150005 | 52 | 134 | 2.6 | 8.7 | 0.00 | 0.00 | 0.00 | 72 | 1018.9 |
| 20260508145959 | 52 | 131 | 2.6 | 7.8 | 0.00 | 0.00 | 0.00 | 72 | 1018.8 |
| 20260508144957 | 51 | 104 | 1.7 | 8.7 | 0.00 | 0.00 | 0.00 | 73 | 1018.9 |
| 20260508144458 | 51 | 314 | 1.7 | 7.8 | 0.00 | 0.00 | 0.00 | 75 | 1018.9 |
| 20260508143959 | 51 | 352 | 2.6 | 7.8 | 0.00 | 0.00 | 0.00 | 75 | 1018.9 |
| 20260508143457 | 51 | 116 | 2.6 | 7.0 | 0.00 | 0.00 | 0.00 | 75 | 1018.7 |
| 20260508142956 | 51 | 224 | 1.7 | 5.2 | 0.00 | 0.00 | 0.00 | 76 | 1018.6 |
| 20260508142458 | 50 | 134 | 0.9 | 5.2 | 0.00 | 0.00 | 0.00 | 78 | 1018.6 |
| 20260508141954 | 49 | 99 | 0.9 | 3.5 | 0.00 | 0.00 | 0.00 | 79 | 1018.5 |
| 20260508141458 | 49 | 276 | 0.9 | 3.5 | 0.00 | 0.00 | 0.00 | 81 | 1018.6 |
| 20260508141002 | 48 | 288 | 0.9 | 6.1 | 0.00 | 0.00 | 0.00 | 81 | 1018.2 |
| 20260508140957 | 48 | 275 | 0.9 | 5.2 | 0.00 | 0.00 | 0.00 | 81 | 1018.5 |
| 20260508140455 | 48 | 338 | 0.9 | 5.2 | 0.00 | 0.00 | 0.00 | 81 | 1018.4 |
| 20260508140123 | 48 | 38 | 0.9 | 3.5 | 0.00 | 0.00 | 0.00 | 82 | 1018.0 |
| 20260508140118 | 48 | 264 | 0.9 | 6.1 | 0.00 | 0.00 | 0.00 | 81 | 1018.1 |
| 20260508134453 | 48 | 329 | 1.7 | 5.2 | 0.00 | 0.00 | 0.00 | 82 | 1017.9 |
| 20260508133950 | 48 | 216 | 1.7 | 5.2 | 0.00 | 0.00 | 0.00 | 83 | 1018.0 |
| 20260508133450 | 48 | 139 | 1.7 | 4.3 | 0.00 | 0.00 | 0.00 | 83 | 1017.9 |
| 20260508132950 | 48 | 5 | 1.7 | 5.2 | 0.00 | 0.00 | 0.00 | 83 | 1017.8 |
| 20260508132449 | 48 | 54 | 1.7 | 5.2 | 0.00 | 0.00 | 0.00 | 83 | 1017.8 |
| 20260508131950 | 48 | 142 | 0.9 | 4.3 | 0.00 | 0.00 | 0.00 | 83 | 1017.6 |
| 20260508131449 | 48 | 306 | 0.9 | 5.2 | 0.00 | 0.00 | 0.00 | 84 | 1017.4 |
| 20260508130949 | 48 | 82 | 1.7 | 5.2 | 0.00 | 0.00 | 0.00 | 84 | 1017.3 |
| 20260508130450 | 48 | 10 | 1.7 | 5.2 | 0.00 | 0.00 | 0.00 | 84 | 1017.3 |
| 20260508125949 | 48 | 257 | 0.9 | 5.2 | 0.00 | 0.00 | 0.00 | 84 | 1017.2 |
| 20260508125449 | 48 | 42 | 0.9 | 5.2 | 0.00 | 0.00 | 0.00 | 84 | 1017.1 |
| 20260508124950 | 48 | 280 | 0.9 | 3.5 | 0.00 | 0.00 | 0.00 | 84 | 1017.2 |
| 20260508124447 | 48 | 54 | 0.9 | 3.5 | 0.00 | 0.00 | 0.00 | 83 | 1017.3 |
| 20260508123947 | 48 | 220 | 1.7 | 7.0 | 0.00 | 0.00 | 0.00 | 83 | 1017.4 |
| 20260508123452 | 48 | 170 | 1.7 | 4.3 | 0.00 | 0.00 | 0.00 | 83 | 1017.2 |
| 20260508123447 | 48 | 176 | 1.7 | 7.0 | 0.00 | 0.00 | 0.00 | 83 | 1017.2 |
| 20260508122446 | 48 | 311 | 1.7 | 4.3 | 0.00 | 0.00 | 0.00 | 83 | 1017.2 |
| 20260508121949 | 48 | 143 | 1.7 | 5.2 | 0.00 | 0.00 | 0.00 | 83 | 1017.2 |
| 20260508121448 | 48 | 175 | 1.7 | 5.2 | 0.00 | 0.00 | 0.00 | 83 | 1017.1 |
| 20260508120946 | 48 | 113 | 0.9 | 6.1 | 0.00 | 0.00 | 0.00 | 84 | 1017.2 |
| 20260508120447 | 48 | 61 | 0.9 | 6.1 | 0.00 | 0.00 | 0.00 | 84 | 1017.1 |
| 20260508115948 | 48 | 256 | 0.9 | 5.2 | 0.00 | 0.00 | 0.00 | 84 | 1017.1 |
| 20260508115447 | 48 | 195 | 0.9 | 5.2 | 0.00 | 0.00 | 0.00 | 84 | 1017.0 |
| 20260508114948 | 48 | 232 | 0.0 | 0.9 | 0.00 | 0.00 | 0.00 | 84 | 1017.0 |
| 20260508114447 | 48 | 211 | 0.0 | 1.7 | 0.00 | 0.00 | 0.00 | 84 | 1016.9 |
| 20260508113948 | 48 | 244 | 0.0 | 2.6 | 0.00 | 0.00 | 0.00 | 84 | 1016.9 |
| 20260508113444 | 48 | 122 | 0.0 | 2.6 | 0.00 | 0.00 | 0.00 | 84 | 1016.8 |
| 20260508112946 | 48 | 143 | 0.0 | 1.7 | 0.00 | 0.00 | 0.00 | 84 | 1016.8 |
| 20260508112446 | 48 | 60 | 0.0 | 2.6 | 0.00 | 0.00 | 0.00 | 84 | 1016.7 |
| 20260508111953 | 48 | 195 | 0.9 | 2.6 | 0.00 | 0.00 | 0.00 | 83 | 1016.6 |
| 20260508111945 | 48 | 219 | 0.9 | 3.5 | 0.00 | 0.00 | 0.00 | 84 | 1016.7 |
| 20260508111444 | 48 | 214 | 0.9 | 3.5 | 0.00 | 0.00 | 0.00 | 84 | 1016.7 |
| 20260508110945 | 48 | 189 | 0.0 | 1.7 | 0.00 | 0.00 | 0.00 | 84 | 1016.7 |
| 20260508110445 | 48 | 195 | 0.9 | 1.7 | 0.00 | 0.00 | 0.00 | 84 | 1016.6 |
| 20260508110106 | 48 | 194 | 0.9 | 2.6 | 0.00 | 0.00 | 0.00 | 83 | 1016.4 |
| 20260508105607 | 49 | 209 | 0.9 | 2.6 | 0.00 | 0.00 | 0.00 | 83 | 1016.3 |
| 20260508104444 | 48 | 221 | 0.9 | 3.5 | 0.00 | 0.00 | 0.00 | 82 | 1016.4 |
| 20260508103945 | 48 | 234 | 0.9 | 3.5 | 0.00 | 0.00 | 0.00 | 82 | 1016.2 |
| 20260508103443 | 48 | 309 | 0.9 | 2.6 | 0.00 | 0.00 | 0.00 | 83 | 1016.1 |
| 20260508102943 | 48 | 283 | 0.9 | 4.3 | 0.00 | 0.00 | 0.00 | 83 | 1016.1 |
| 20260508102443 | 48 | 214 | 0.9 | 4.3 | 0.00 | 0.00 | 0.00 | 84 | 1016.1 |
| 20260508101945 | 48 | 293 | 0.0 | 1.7 | 0.00 | 0.00 | 0.00 | 83 | 1016.1 |
| 20260508101450 | 48 | 256 | 0.0 | 1.7 | 0.00 | 0.00 | 0.00 | 83 | 1016.1 |
| 20260508101445 | 48 | 287 | 0.9 | 1.7 | 0.00 | 0.00 | 0.00 | 83 | 1016.2 |
| 20260508100444 | 48 | 323 | 0.0 | 0.9 | 0.00 | 0.00 | 0.00 | 84 | 1016.2 |
| 20260508095942 | 48 | 38 | 0.0 | 0.9 | 0.00 | 0.00 | 0.00 | 84 | 1016.2 |
| 20260508095449 | 48 | 347 | 0.0 | 2.6 | 0.00 | 0.00 | 0.00 | 84 | 1016.1 |
| 20260508095443 | 48 | 131 | 0.0 | 0.0 | 0.00 | 0.00 | 0.00 | 84 | 1016.2 |
| 20260508095108 | 48 | 132 | 0.0 | 2.6 | 0.00 | 0.00 | 0.00 | 84 | 1016.1 |
| 20260508094943 | 48 | 347 | 0.0 | 1.7 | 0.00 | 0.00 | 0.00 | 84 | 1016.1 |
| 20260508093438 | 48 | 218 | 0.0 | 2.6 | 0.00 | 0.00 | 0.00 | 84 | 1016.1 |
| 20260508092938 | 48 | 218 | 0.0 | 2.6 | 0.00 | 0.00 | 0.00 | 84 | 1016.1 |
| 20260508092439 | 48 | 138 | 0.0 | 0.9 | 0.00 | 0.00 | 0.00 | 84 | 1016.1 |
| 20260508091944 | 49 | 165 | 0.0 | 0.9 | 0.00 | 0.00 | 0.00 | 83 | 1016.1 |
| 20260508091940 | 49 | 165 | 0.0 | 0.0 | 0.00 | 0.00 | 0.00 | 83 | 1016.2 |
| 20260508091601 | 49 | 165 | 0.0 | 0.9 | 0.00 | 0.00 | 0.00 | 83 | 1016.1 |